Zeit;wasserstand;wasserstand_status;abfluss;abfluss_status
2018-11-01 00:00:00;202.0;1;0.9306;1
2018-11-02 00:00:00;202.0;1;0.9306;1
2018-11-03 00:00:00;202.0;1;0.9306;1
2018-11-04 00:00:00;202.0;1;0.9306;1
2018-11-05 00:00:00;202.0;1;0.9306;1
2018-11-06 00:00:00;201.0;1;0.9187;1
2018-11-07 00:00:00;201.0;1;0.9061;1
2018-11-08 00:00:00;201.0;1;0.9247;1
2018-11-09 00:00:00;201.0;1;0.9348;1
2018-11-10 00:00:00;201.0;1;0.9449;1
2018-11-11 00:00:00;202.0;1;0.9818;1
2018-11-12 00:00:00;203.0;1;1.0243;1
2018-11-13 00:00:00;202.0;1;0.9976;1
2018-11-14 00:00:00;202.0;1;0.9732;1
2018-11-15 00:00:00;201.0;1;0.9436;1
2018-11-16 00:00:00;201.0;1;0.9486;1
2018-11-17 00:00:00;201.0;1;0.9535;1
2018-11-18 00:00:00;201.0;1;0.9584;1
2018-11-19 00:00:00;202.0;1;0.9938;1
2018-11-20 00:00:00;201.0;1;0.9911;1
2018-11-21 00:00:00;201.0;1;0.9729;1
2018-11-22 00:00:00;201.0;1;0.9775;1
2018-11-23 00:00:00;201.0;1;0.9951;1
2018-11-24 00:00:00;201.0;1;0.9867;1
2018-11-25 00:00:00;201.0;1;0.9912;1
2018-11-26 00:00:00;201.0;1;0.9956;1
2018-11-27 00:00:00;201.0;1;1.0026;1
2018-11-28 00:00:00;201.0;1;1.0042;1
2018-11-29 00:00:00;202.0;1;1.083;1
2018-11-30 00:00:00;202.0;1;1.098;1
2018-12-01 00:00:00;202.0;1;1.0807;1
2018-12-02 00:00:00;203.0;1;1.123;1
2018-12-03 00:00:00;203.0;1;1.1788;1
2018-12-04 00:00:00;203.0;1;1.1776;1
2018-12-05 00:00:00;202.0;1;1.11;1
2018-12-06 00:00:00;203.0;1;1.1439;1
2018-12-07 00:00:00;206.0;1;1.3681;1
2018-12-08 00:00:00;208.0;1;1.4898;1
2018-12-09 00:00:00;213.0;1;1.8727;1
2018-12-10 00:00:00;208.0;1;1.5156;1
2018-12-11 00:00:00;206.0;1;1.4058;1
2018-12-12 00:00:00;206.0;1;1.386;1
2018-12-13 00:00:00;205.0;1;1.3253;1
2018-12-14 00:00:00;205.0;1;1.3283;1
2018-12-15 00:00:00;205.0;1;1.3311;1
2018-12-16 00:00:00;205.0;1;1.328;1
2018-12-17 00:00:00;205.0;1;1.316;1
2018-12-18 00:00:00;205.0;1;1.3388;1
2018-12-19 00:00:00;205.0;1;1.3441;1
2018-12-20 00:00:00;205.0;1;1.3435;1
2018-12-21 00:00:00;207.0;1;1.5162;1
2018-12-22 00:00:00;210.0;1;1.6793;1
2018-12-23 00:00:00;209.0;1;1.6424;1
2018-12-24 00:00:00;209.0;1;1.6329;1
2018-12-25 00:00:00;207.0;1;1.5186;1
2018-12-26 00:00:00;207.0;1;1.4941;1
2018-12-27 00:00:00;207.0;1;1.4906;1
2018-12-28 00:00:00;206.0;1;1.451;1
2018-12-29 00:00:00;207.0;1;1.5201;1
2018-12-30 00:00:00;209.0;1;1.6524;1
2018-12-31 00:00:00;207.0;1;1.5251;1
2019-01-01 00:00:00;207.0;1;1.5158;1
2019-01-02 00:00:00;207.0;1;1.4854;1
2019-01-03 00:00:00;206.0;1;1.458;1
2019-01-04 00:00:00;206.0;1;1.4641;1
2019-01-05 00:00:00;206.0;1;1.4764;1
2019-01-06 00:00:00;206.0;1;1.4615;1
2019-01-07 00:00:00;207.0;1;1.508;1
2019-01-08 00:00:00;212.0;1;1.8833;1
2019-01-09 00:00:00;209.0;1;1.6917;1
2019-01-10 00:00:00;208.0;1;1.6221;1
2019-01-11 00:00:00;208.0;1;1.6268;1
2019-01-12 00:00:00;209.0;1;1.6943;1
2019-01-13 00:00:00;212.0;1;1.9162;1
2019-01-14 00:00:00;211.0;1;1.8397;1
2019-01-15 00:00:00;210.0;1;1.8111;1
2019-01-16 00:00:00;212.0;1;1.9477;1
2019-01-17 00:00:00;213.0;1;2.0352;1
2019-01-18 00:00:00;212.0;1;1.938;1
2019-01-19 00:00:00;210.0;1;1.8351;1
2019-01-20 00:00:00;209.0;1;1.7868;1
2019-01-21 00:00:00;209.0;1;1.7576;1
2019-01-22 00:00:00;209.0;1;1.7636;1
2019-01-23 00:00:00;209.0;1;1.734;1
2019-01-24 00:00:00;208.0;1;1.6977;1
2019-01-25 00:00:00;208.0;1;1.7001;1
2019-01-26 00:00:00;209.0;1;1.7678;1
2019-01-27 00:00:00;212.0;1;2.0513;1
2019-01-28 00:00:00;213.0;1;2.1175;1
2019-01-29 00:00:00;212.0;1;2.0265;1
2019-01-30 00:00:00;211.0;1;1.9423;1
2019-01-31 00:00:00;210.0;1;1.8947;1
2019-02-01 00:00:00;209.0;1;1.8535;1
2019-02-02 00:00:00;209.0;1;1.8319;1
2019-02-03 00:00:00;208.0;1;1.7766;1
2019-02-04 00:00:00;208.0;1;1.7576;1
2019-02-05 00:00:00;208.0;1;1.792;1
2019-02-06 00:00:00;209.0;1;1.8667;1
2019-02-07 00:00:00;217.0;1;2.5391;1
2019-02-08 00:00:00;217.0;1;2.4928;1
2019-02-09 00:00:00;218.0;1;2.6459;1
2019-02-10 00:00:00;228.0;1;3.4702;1
2019-02-11 00:00:00;255.0;1;5.8995;1
2019-02-12 00:00:00;237.0;1;4.3111;1
2019-02-13 00:00:00;227.0;1;3.3717;1
2019-02-14 00:00:00;222.0;1;2.9368;1
2019-02-15 00:00:00;219.0;1;2.6842;1
2019-02-16 00:00:00;217.0;1;2.5793;1
2019-02-17 00:00:00;216.0;1;2.4778;1
2019-02-18 00:00:00;215.0;1;2.3873;1
2019-02-19 00:00:00;215.0;1;2.3442;1
2019-02-20 00:00:00;214.0;1;2.2864;1
2019-02-21 00:00:00;214.0;1;2.3037;1
2019-02-22 00:00:00;214.0;1;2.26;1
2019-02-23 00:00:00;213.0;1;2.1772;1
2019-02-24 00:00:00;212.0;1;2.1229;1
2019-02-25 00:00:00;212.0;1;2.1102;1
2019-02-26 00:00:00;212.0;1;2.1075;1
2019-02-27 00:00:00;212.0;1;2.1044;1
2019-02-28 00:00:00;212.0;1;2.1008;1
2019-03-01 00:00:00;212.0;1;2.0796;1
2019-03-02 00:00:00;211.0;1;2.0136;1
2019-03-03 00:00:00;213.0;1;2.1469;1
2019-03-04 00:00:00;219.0;1;2.6623;1
2019-03-05 00:00:00;221.0;1;2.8433;1
2019-03-06 00:00:00;219.0;1;2.6233;1
2019-03-07 00:00:00;222.0;1;2.8708;1
2019-03-08 00:00:00;228.0;1;3.3572;1
2019-03-09 00:00:00;231.0;1;3.6274;1
2019-03-10 00:00:00;234.0;1;3.9099;1
2019-03-11 00:00:00;232.0;1;3.6673;1
2019-03-12 00:00:00;229.0;1;3.456;1
2019-03-13 00:00:00;240.0;1;4.3523;1
2019-03-14 00:00:00;264.0;1;6.372;1
2019-03-15 00:00:00;261.0;1;6.0288;1
2019-03-16 00:00:00;259.0;1;5.8547;1
2019-03-17 00:00:00;270.0;1;6.9435;1
2019-03-18 00:00:00;273.0;1;7.2682;1
2019-03-19 00:00:00;265.0;1;6.3227;1
2019-03-20 00:00:00;250.0;1;4.9978;1
2019-03-21 00:00:00;242.0;1;4.3101;1
2019-03-22 00:00:00;236.0;1;3.838;1
2019-03-23 00:00:00;233.0;1;3.5325;1
2019-03-24 00:00:00;229.0;1;3.2273;1
2019-03-25 00:00:00;230.0;1;3.3279;1
2019-03-26 00:00:00;227.0;1;3.0376;1
2019-03-27 00:00:00;225.0;1;2.8555;1
2019-03-28 00:00:00;224.0;1;2.8107;1
2019-03-29 00:00:00;223.0;1;2.6909;1
2019-03-30 00:00:00;222.0;1;2.6125;1
2019-03-31 00:00:00;220.0;1;2.4892;1
2019-04-01 00:00:00;219.0;1;2.372;1
2019-04-02 00:00:00;219.0;1;2.372;1
2019-04-03 00:00:00;220.0;1;2.4685;1
2019-04-04 00:00:00;219.0;1;2.4312;1
2019-04-05 00:00:00;218.0;1;2.2836;1
2019-04-06 00:00:00;216.0;1;2.1882;1
2019-04-07 00:00:00;216.0;1;2.1416;1
2019-04-08 00:00:00;215.0;1;2.0796;1
2019-04-09 00:00:00;215.0;1;2.053;1
2019-04-10 00:00:00;214.0;1;2.0013;1
2019-04-11 00:00:00;214.0;1;1.9846;1
2019-04-12 00:00:00;213.0;1;1.9431;1
2019-04-13 00:00:00;213.0;1;1.9511;1
2019-04-14 00:00:00;213.0;1;1.928;1
2019-04-15 00:00:00;213.0;1;1.9173;1
2019-04-16 00:00:00;213.0;1;1.9186;1
2019-04-17 00:00:00;212.0;1;1.8741;1
2019-04-18 00:00:00;212.0;1;1.8629;1
2019-04-19 00:00:00;212.0;1;1.8423;1
2019-04-20 00:00:00;212.0;1;1.8276;1
2019-04-21 00:00:00;212.0;1;1.8306;1
2019-04-22 00:00:00;211.0;1;1.7883;1
2019-04-23 00:00:00;212.0;1;1.8085;1
2019-04-24 00:00:00;212.0;1;1.8161;1
2019-04-25 00:00:00;211.0;1;1.7699;1
2019-04-26 00:00:00;211.0;1;1.7413;1
2019-04-27 00:00:00;213.0;1;1.843;1
2019-04-28 00:00:00;212.0;1;1.8163;1
2019-04-29 00:00:00;213.0;1;1.8313;1
2019-04-30 00:00:00;211.0;1;1.7516;1
2019-05-01 00:00:00;211.0;1;1.7134;1
2019-05-02 00:00:00;211.0;1;1.719;1
2019-05-03 00:00:00;211.0;1;1.7072;1
2019-05-04 00:00:00;211.0;1;1.6953;1
2019-05-05 00:00:00;211.0;1;1.658;1
2019-05-06 00:00:00;211.0;1;1.655;1
2019-05-07 00:00:00;210.0;1;1.6409;1
2019-05-08 00:00:00;211.0;1;1.6411;1
2019-05-09 00:00:00;215.0;1;1.9405;1
2019-05-10 00:00:00;212.0;1;1.7381;1
2019-05-11 00:00:00;211.0;1;1.6598;1
2019-05-12 00:00:00;211.0;1;1.6219;1
2019-05-13 00:00:00;210.0;1;1.5985;1
2019-05-14 00:00:00;210.0;1;1.5895;1
2019-05-15 00:00:00;210.0;1;1.5865;1
2019-05-16 00:00:00;211.0;1;1.6062;1
2019-05-17 00:00:00;211.0;1;1.6375;1
2019-05-18 00:00:00;210.0;1;1.5838;1
2019-05-19 00:00:00;210.0;1;1.5694;1
2019-05-20 00:00:00;210.0;1;1.5722;1
2019-05-21 00:00:00;222.0;1;2.4523;1
2019-05-22 00:00:00;240.0;1;3.7437;1
2019-05-23 00:00:00;217.0;1;2.0641;1
2019-05-24 00:00:00;213.0;1;1.8043;1
2019-05-25 00:00:00;212.0;1;1.6864;1
2019-05-26 00:00:00;212.0;1;1.7113;1
2019-05-27 00:00:00;218.0;1;2.1499;1
2019-05-28 00:00:00;213.0;1;1.7936;1
2019-05-29 00:00:00;211.0;1;1.6566;1
2019-05-30 00:00:00;210.0;1;1.6251;1
2019-05-31 00:00:00;210.0;1;1.6216;1
2019-06-01 00:00:00;210.0;1;1.5927;1
2019-06-02 00:00:00;209.0;1;1.5523;1
2019-06-03 00:00:00;209.0;1;1.5625;1
2019-06-04 00:00:00;209.0;1;1.5555;1
2019-06-05 00:00:00;208.0;1;1.5224;1
2019-06-06 00:00:00;208.0;1;1.4974;1
2019-06-07 00:00:00;208.0;1;1.489;1
2019-06-08 00:00:00;209.0;1;1.5605;1
2019-06-09 00:00:00;207.0;1;1.4418;1
2019-06-10 00:00:00;207.0;1;1.4374;1
2019-06-11 00:00:00;215.0;1;1.9685;1
2019-06-12 00:00:00;212.0;1;1.7527;1
2019-06-13 00:00:00;209.0;1;1.5895;1
2019-06-14 00:00:00;209.0;1;1.5796;1
2019-06-15 00:00:00;219.0;1;2.2796;1
2019-06-16 00:00:00;214.0;1;1.9003;1
2019-06-17 00:00:00;210.0;1;1.6631;1
2019-06-18 00:00:00;210.0;1;1.63;1
2019-06-19 00:00:00;215.0;1;1.9881;1
2019-06-20 00:00:00;218.0;1;2.1556;1
2019-06-21 00:00:00;211.0;1;1.6696;1
2019-06-22 00:00:00;209.0;1;1.5548;1
2019-06-23 00:00:00;208.0;1;1.4884;1
2019-06-24 00:00:00;208.0;1;1.4221;1
2019-06-25 00:00:00;207.0;1;1.3781;1
2019-06-26 00:00:00;207.0;1;1.367;1
2019-06-27 00:00:00;207.0;1;1.3503;1
2019-06-28 00:00:00;206.0;1;1.3037;1
2019-06-29 00:00:00;206.0;1;1.3055;1
2019-06-30 00:00:00;206.0;1;1.2831;1
2019-07-01 00:00:00;206.0;1;1.2553;1
2019-07-02 00:00:00;206.0;1;1.2487;1
2019-07-03 00:00:00;206.0;1;1.2393;1
2019-07-04 00:00:00;206.0;1;1.1991;1
2019-07-05 00:00:00;206.0;1;1.2075;1
2019-07-06 00:00:00;206.0;1;1.2107;1
2019-07-07 00:00:00;205.0;1;1.1687;1
2019-07-08 00:00:00;205.0;1;1.1344;1
2019-07-09 00:00:00;205.0;1;1.1277;1
2019-07-10 00:00:00;206.0;1;1.1453;1
2019-07-11 00:00:00;206.0;1;1.1407;1
2019-07-12 00:00:00;210.0;1;1.3837;1
2019-07-13 00:00:00;208.0;1;1.2632;1
2019-07-14 00:00:00;207.0;1;1.1643;1
2019-07-15 00:00:00;206.0;1;1.1236;1
2019-07-16 00:00:00;206.0;1;1.1139;1
2019-07-17 00:00:00;206.0;1;1.1065;1
2019-07-18 00:00:00;206.0;1;1.0945;1
2019-07-19 00:00:00;206.0;1;1.0713;1
2019-07-20 00:00:00;207.0;1;1.1193;1
2019-07-21 00:00:00;209.0;1;1.2207;1
2019-07-22 00:00:00;206.0;1;1.0604;1
2019-07-23 00:00:00;206.0;1;1.0596;1
2019-07-24 00:00:00;206.0;1;1.0219;1
2019-07-25 00:00:00;206.0;1;1.004;1
2019-07-26 00:00:00;205.0;1;0.9863;1
2019-07-27 00:00:00;205.0;1;0.9376;1
2019-07-28 00:00:00;204.0;1;0.9145;1
2019-07-29 00:00:00;213.0;1;1.3636;1
2019-07-30 00:00:00;230.0;1;2.2082;1
2019-07-31 00:00:00;223.0;1;1.8276;1
2019-08-01 00:00:00;223.0;1;1.8215;1
2019-08-02 00:00:00;226.0;1;1.9518;1
2019-08-03 00:00:00;219.0;1;1.5673;1
2019-08-04 00:00:00;214.0;1;1.3016;1
2019-08-05 00:00:00;214.0;1;1.3201;1
2019-08-06 00:00:00;214.0;1;1.2816;1
2019-08-07 00:00:00;213.0;1;1.2459;1
2019-08-08 00:00:00;217.0;1;1.4218;1
2019-08-09 00:00:00;215.0;1;1.306;1
2019-08-10 00:00:00;215.0;1;1.3061;1
2019-08-11 00:00:00;214.0;1;1.2305;1
2019-08-12 00:00:00;212.0;1;1.1153;1
2019-08-13 00:00:00;218.0;1;1.3831;1
2019-08-14 00:00:00;216.0;1;1.2869;1
2019-08-15 00:00:00;221.0;1;1.5099;1
2019-08-16 00:00:00;223.0;1;1.5879;1
2019-08-17 00:00:00;218.0;1;1.3565;1
2019-08-18 00:00:00;220.0;1;1.4177;1
2019-08-19 00:00:00;218.0;1;1.3134;1
2019-08-20 00:00:00;217.0;1;1.2621;1
2019-08-21 00:00:00;216.0;1;1.2228;1
2019-08-22 00:00:00;215.0;1;1.156;1
2019-08-23 00:00:00;214.0;1;1.1014;1
2019-08-24 00:00:00;213.0;1;1.0503;1
2019-08-25 00:00:00;212.0;1;1.0122;1
2019-08-26 00:00:00;212.0;1;0.9982;1
2019-08-27 00:00:00;212.0;1;0.9943;1
2019-08-28 00:00:00;214.0;1;1.057;1
2019-08-29 00:00:00;215.0;1;1.1071;1
2019-08-30 00:00:00;212.0;1;0.9973;1
2019-08-31 00:00:00;212.0;1;0.961;1
2019-09-01 00:00:00;212.0;1;0.9639;1
2019-09-02 00:00:00;212.0;1;0.9707;1
2019-09-03 00:00:00;218.0;1;1.2043;1
2019-09-04 00:00:00;217.0;1;1.1641;1
2019-09-05 00:00:00;218.0;1;1.2074;1
2019-09-06 00:00:00;216.0;1;1.1063;1
2019-09-07 00:00:00;213.0;1;1.0162;1
2019-09-08 00:00:00;212.0;1;0.9761;1
2019-09-09 00:00:00;213.0;1;0.9957;1
2019-09-10 00:00:00;218.0;1;1.2069;1
2019-09-11 00:00:00;215.0;1;1.0919;1
2019-09-12 00:00:00;216.0;1;1.1448;1
2019-09-13 00:00:00;214.0;1;1.0804;1
2019-09-14 00:00:00;211.0;1;0.9992;1
2019-09-15 00:00:00;211.0;1;1.002;1
2019-09-16 00:00:00;210.0;1;0.9939;1
2019-09-17 00:00:00;210.0;1;0.9903;1
2019-09-18 00:00:00;209.0;1;0.98;1
2019-09-19 00:00:00;208.0;1;0.9537;1
2019-09-20 00:00:00;208.0;1;0.9561;1
2019-09-21 00:00:00;208.0;1;0.9698;1
2019-09-22 00:00:00;207.0;1;0.9688;1
2019-09-23 00:00:00;206.0;1;0.9555;1
2019-09-24 00:00:00;206.0;1;0.9657;1
2019-09-25 00:00:00;206.0;1;0.9861;1
2019-09-26 00:00:00;206.0;1;1.0131;1
2019-09-27 00:00:00;216.0;1;1.5818;1
2019-09-28 00:00:00;208.0;1;1.1658;1
2019-09-29 00:00:00;222.0;1;1.9587;1
2019-09-30 00:00:00;229.0;1;2.422;1
2019-10-01 00:00:00;225.0;1;2.2605;1
2019-10-02 00:00:00;220.0;1;1.9832;1
2019-10-03 00:00:00;214.0;1;1.6502;1
2019-10-04 00:00:00;212.0;1;1.535;1
2019-10-05 00:00:00;211.0;1;1.4929;1
2019-10-06 00:00:00;208.0;1;1.3883;1
2019-10-07 00:00:00;207.0;1;1.3425;1
2019-10-08 00:00:00;211.0;1;1.5926;1
2019-10-09 00:00:00;210.0;1;1.5759;1
2019-10-10 00:00:00;210.0;1;1.6035;1
2019-10-11 00:00:00;210.0;1;1.5861;1
2019-10-12 00:00:00;222.0;1;2.4443;1
2019-10-13 00:00:00;219.0;1;2.2992;1
2019-10-14 00:00:00;220.0;1;2.4088;1
2019-10-15 00:00:00;217.0;1;2.1736;1
2019-10-16 00:00:00;230.0;1;3.1715;1
2019-10-17 00:00:00;234.0;1;3.4774;1
2019-10-18 00:00:00;233.0;1;3.4355;1
2019-10-19 00:00:00;229.0;1;3.1415;1
2019-10-20 00:00:00;224.0;1;2.7992;1
2019-10-21 00:00:00;223.0;1;2.693;1
2019-10-22 00:00:00;220.0;1;2.5375;1
2019-10-23 00:00:00;218.0;1;2.3541;1
2019-10-24 00:00:00;217.0;1;2.2664;1
2019-10-25 00:00:00;215.0;1;2.142;1
2019-10-26 00:00:00;214.0;1;2.0502;1
2019-10-27 00:00:00;215.0;1;2.1025;1
2019-10-28 00:00:00;214.0;1;2.0255;1
2019-10-29 00:00:00;213.0;1;1.9392;1
2019-10-30 00:00:00;212.0;1;1.8817;1
2019-10-31 00:00:00;211.0;1;1.8458;1
2019-11-01 00:00:00;212.0;1;1.8529;1
2019-11-02 00:00:00;216.0;1;2.1649;1
2019-11-03 00:00:00;215.0;1;2.1472;1
2019-11-04 00:00:00;220.0;1;2.4671;1
2019-11-05 00:00:00;224.0;1;2.7783;1
2019-11-06 00:00:00;227.0;1;3.022;1
2019-11-07 00:00:00;224.0;1;2.8069;1
2019-11-08 00:00:00;223.0;1;2.6825;1
2019-11-09 00:00:00;220.0;1;2.4391;1
2019-11-10 00:00:00;218.0;1;2.28;1
2019-11-11 00:00:00;216.0;1;2.1733;1
2019-11-12 00:00:00;216.0;1;2.1251;1
2019-11-13 00:00:00;215.0;1;2.0647;1
2019-11-14 00:00:00;214.0;1;1.9802;1
2019-11-15 00:00:00;213.0;1;1.9217;1
2019-11-16 00:00:00;216.0;1;2.1535;1
2019-11-17 00:00:00;218.0;1;2.2662;1
2019-11-18 00:00:00;221.0;1;2.5211;1
2019-11-19 00:00:00;222.0;1;2.609;1
2019-11-20 00:00:00;220.0;1;2.4394;1
2019-11-21 00:00:00;220.0;1;2.4304;1
2019-11-22 00:00:00;222.0;1;2.5874;1
2019-11-23 00:00:00;221.0;1;2.4974;1
2019-11-24 00:00:00;218.0;1;2.283;1
2019-11-25 00:00:00;217.0;1;2.1856;1
2019-11-26 00:00:00;216.0;1;2.1142;1
2019-11-27 00:00:00;216.0;1;2.1376;1
2019-11-28 00:00:00;224.0;1;2.6994;1
2019-11-29 00:00:00;227.0;1;2.9351;1
2019-11-30 00:00:00;221.0;1;2.5166;1
2019-12-01 00:00:00;219.0;1;2.3398;1
2019-12-02 00:00:00;217.0;1;2.1872;1
2019-12-03 00:00:00;217.0;1;2.1921;1
2019-12-04 00:00:00;217.0;1;2.1597;1
2019-12-05 00:00:00;216.0;1;2.1305;1
2019-12-06 00:00:00;219.0;1;2.345;1
2019-12-07 00:00:00;230.0;1;3.1202;1
2019-12-08 00:00:00;231.0;1;3.2589;1
2019-12-09 00:00:00;231.0;1;3.2391;1
2019-12-10 00:00:00;225.0;1;2.7948;1
2019-12-11 00:00:00;223.0;1;2.6458;1
2019-12-12 00:00:00;222.0;1;2.5754;1
2019-12-13 00:00:00;222.0;1;2.5325;1
2019-12-14 00:00:00;223.0;1;2.606;1
2019-12-15 00:00:00;225.0;1;2.759;1
2019-12-16 00:00:00;224.0;1;2.6866;1
2019-12-17 00:00:00;222.0;1;2.5435;1
2019-12-18 00:00:00;221.0;1;2.4976;1
2019-12-19 00:00:00;219.0;1;2.3705;1
2019-12-20 00:00:00;220.0;1;2.4185;1
2019-12-21 00:00:00;225.0;1;2.7551;1
2019-12-22 00:00:00;222.0;1;2.5575;1
2019-12-23 00:00:00;222.0;1;2.5433;1
2019-12-24 00:00:00;222.0;1;2.5864;1
2019-12-25 00:00:00;228.0;1;2.9902;1
2019-12-26 00:00:00;226.0;1;2.8694;1
2019-12-27 00:00:00;224.0;1;2.737;1
2019-12-28 00:00:00;221.0;1;2.511;1
2019-12-29 00:00:00;220.0;1;2.422;1
2019-12-30 00:00:00;219.0;1;2.3795;1
2019-12-31 00:00:00;219.0;1;2.3243;1
2020-01-01 00:00:00;218.0;1;2.2468;1
2020-01-02 00:00:00;217.0;1;2.2042;1
2020-01-03 00:00:00;222.0;1;2.5704;1
2020-01-04 00:00:00;228.0;1;3.045;1
2020-01-05 00:00:00;225.0;1;2.7977;1
2020-01-06 00:00:00;223.0;1;2.6804;1
2020-01-07 00:00:00;223.0;1;2.6459;1
2020-01-08 00:00:00;222.0;1;2.6019;1
2020-01-09 00:00:00;223.0;1;2.6512;1
2020-01-10 00:00:00;232.0;1;3.3644;1
2020-01-11 00:00:00;232.0;1;3.3882;1
2020-01-12 00:00:00;235.0;1;3.6234;1
2020-01-13 00:00:00;253.0;1;5.0199;1
2020-01-14 00:00:00;256.0;1;5.2298;1
2020-01-15 00:00:00;258.0;1;5.3805;1
2020-01-16 00:00:00;247.0;1;4.5335;1
2020-01-17 00:00:00;238.0;1;3.8522;1
2020-01-18 00:00:00;235.0;1;3.5961;1
2020-01-19 00:00:00;230.0;1;3.2527;1
2020-01-20 00:00:00;227.0;1;3.0148;1
2020-01-21 00:00:00;226.0;1;2.9558;1
2020-01-22 00:00:00;226.0;1;2.9251;1
2020-01-23 00:00:00;225.0;1;2.8347;1
2020-01-24 00:00:00;224.0;1;2.8007;1
2020-01-25 00:00:00;223.0;1;2.76;1
2020-01-26 00:00:00;223.0;1;2.697;1
2020-01-27 00:00:00;224.0;1;2.7923;1
2020-01-28 00:00:00;226.0;1;2.9801;1
2020-01-29 00:00:00;244.0;1;4.3552;1
2020-01-30 00:00:00;265.0;1;6.2162;1
2020-01-31 00:00:00;269.0;1;6.6209;1
2020-02-01 00:00:00;270.0;1;6.6477;1
2020-02-02 00:00:00;263.0;1;5.9924;1
2020-02-03 00:00:00;250.0;1;4.9325;1
2020-02-04 00:00:00;248.0;1;4.7267;1
2020-02-05 00:00:00;240.0;1;4.1195;1
2020-02-06 00:00:00;237.0;1;3.8409;1
2020-02-07 00:00:00;234.0;1;3.6266;1
2020-02-08 00:00:00;232.0;1;3.5036;1
2020-02-09 00:00:00;233.0;1;3.5377;1
2020-02-10 00:00:00;273.0;1;7.0647;1
2020-02-11 00:00:00;297.0;1;9.7299;1
2020-02-12 00:00:00;323.0;1;12.8904;1
2020-02-13 00:00:00;330.0;1;14.0427;1
2020-02-14 00:00:00;325.0;1;13.1949;1
2020-02-15 00:00:00;308.0;1;10.9167;1
2020-02-16 00:00:00;293.0;1;9.2194;1
2020-02-17 00:00:00;294.0;1;9.3334;1
2020-02-18 00:00:00;288.0;1;8.8037;1
2020-02-19 00:00:00;298.0;1;9.8345;1
2020-02-20 00:00:00;300.0;1;10.0139;1
2020-02-21 00:00:00;306.0;1;10.7221;1
2020-02-22 00:00:00;306.0;1;10.7023;1
2020-02-23 00:00:00;307.0;1;10.8264;1
2020-02-24 00:00:00;311.0;1;11.3685;1
2020-02-25 00:00:00;326.0;1;13.4891;1
2020-02-26 00:00:00;329.0;1;14.0548;1
2020-02-27 00:00:00;319.0;1;12.5459;1
2020-02-28 00:00:00;301.0;1;10.325;1
2020-02-29 00:00:00;305.0;1;10.7434;1
2020-03-01 00:00:00;308.0;1;11.1819;1
2020-03-02 00:00:00;298.0;1;10.0326;1
2020-03-03 00:00:00;291.0;1;9.2472;1
2020-03-04 00:00:00;283.0;1;8.3761;1
2020-03-05 00:00:00;276.0;1;7.6948;1
2020-03-06 00:00:00;272.0;1;7.2311;1
2020-03-07 00:00:00;266.0;1;6.6227;1
2020-03-08 00:00:00;262.0;1;6.2037;1
2020-03-09 00:00:00;260.0;1;6.0037;1
2020-03-10 00:00:00;273.0;1;7.3966;1
2020-03-11 00:00:00;310.0;1;11.5929;1
2020-03-12 00:00:00;297.0;1;10.1261;1
2020-03-13 00:00:00;283.0;1;8.5293;1
2020-03-14 00:00:00;269.0;1;7.0452;1
2020-03-15 00:00:00;264.0;1;6.469;1
2020-03-16 00:00:00;259.0;1;5.9804;1
2020-03-17 00:00:00;255.0;1;5.5915;1
2020-03-18 00:00:00;253.0;1;5.4297;1
2020-03-19 00:00:00;253.0;1;5.4739;1
2020-03-20 00:00:00;250.0;1;5.1861;1
2020-03-21 00:00:00;246.0;1;4.9222;1
2020-03-22 00:00:00;244.0;1;4.7092;1
2020-03-23 00:00:00;242.0;1;4.5373;1
2020-03-24 00:00:00;240.0;1;4.4378;1
2020-03-25 00:00:00;239.0;1;4.3362;1
2020-03-26 00:00:00;238.0;1;4.1997;1
2020-03-27 00:00:00;236.0;1;4.077;1
2020-03-28 00:00:00;235.0;1;3.9798;1
2020-03-29 00:00:00;236.0;1;4.0376;1
2020-03-30 00:00:00;239.0;1;4.3361;1
2020-03-31 00:00:00;237.0;1;4.1023;1
2020-04-01 00:00:00;235.0;1;3.9794;1
2020-04-02 00:00:00;235.0;1;3.9559;1
2020-04-03 00:00:00;234.0;1;3.829;1
2020-04-04 00:00:00;231.0;1;3.6028;1
2020-04-05 00:00:00;229.0;1;3.4416;1
2020-04-06 00:00:00;229.0;1;3.3651;1
2020-04-07 00:00:00;227.0;1;3.2344;1
2020-04-08 00:00:00;226.0;1;3.151;1
2020-04-09 00:00:00;226.0;1;3.1307;1
2020-04-10 00:00:00;225.0;1;3.0464;1
2020-04-11 00:00:00;224.0;1;2.9715;1
2020-04-12 00:00:00;224.0;1;2.9389;1
2020-04-13 00:00:00;224.0;1;2.9219;1
2020-04-14 00:00:00;223.0;1;2.8614;1
2020-04-15 00:00:00;223.0;1;2.8164;1
2020-04-16 00:00:00;223.0;1;2.7674;1
2020-04-17 00:00:00;222.0;1;2.7013;1
2020-04-18 00:00:00;221.0;1;2.6281;1
2020-04-19 00:00:00;220.0;1;2.5479;1
2020-04-20 00:00:00;220.0;1;2.4934;1
2020-04-21 00:00:00;220.0;1;2.458;1
2020-04-22 00:00:00;219.0;1;2.3966;1
2020-04-23 00:00:00;219.0;1;2.3576;1
2020-04-24 00:00:00;220.0;1;2.4192;1
2020-04-25 00:00:00;219.0;1;2.3389;1
2020-04-26 00:00:00;219.0;1;2.2932;1
2020-04-27 00:00:00;219.0;1;2.2755;1
2020-04-28 00:00:00;219.0;1;2.2272;1
2020-04-29 00:00:00;220.0;1;2.3149;1
2020-04-30 00:00:00;223.0;1;2.4971;1
2020-05-01 00:00:00;226.0;1;2.6466;1
2020-05-02 00:00:00;223.0;1;2.4296;1
2020-05-03 00:00:00;220.0;1;2.2419;1
2020-05-04 00:00:00;220.0;1;2.1758;1
2020-05-05 00:00:00;219.0;1;2.1194;1
2020-05-06 00:00:00;218.0;1;2.053;1
2020-05-07 00:00:00;218.0;1;2.0047;1
2020-05-08 00:00:00;218.0;1;1.994;1
2020-05-09 00:00:00;218.0;1;1.9813;1
2020-05-10 00:00:00;218.0;1;1.9804;1
2020-05-11 00:00:00;218.0;1;1.9504;1
2020-05-12 00:00:00;219.0;1;1.973;1
2020-05-13 00:00:00;221.0;1;2.1262;1
2020-05-14 00:00:00;220.0;1;2.0473;1
2020-05-15 00:00:00;219.0;1;1.9743;1
2020-05-16 00:00:00;219.0;1;1.964;1
2020-05-17 00:00:00;219.0;1;1.9341;1
2020-05-18 00:00:00;219.0;1;1.9508;1
2020-05-19 00:00:00;219.0;1;1.9428;1
2020-05-20 00:00:00;218.0;1;1.897;1
2020-05-21 00:00:00;218.0;1;1.8871;1
2020-05-22 00:00:00;219.0;1;1.9745;1
2020-05-23 00:00:00;221.0;1;2.0677;1
2020-05-24 00:00:00;218.0;1;1.8915;1
2020-05-25 00:00:00;217.0;1;1.8438;1
2020-05-26 00:00:00;217.0;1;1.8445;1
2020-05-27 00:00:00;217.0;1;1.8325;1
2020-05-28 00:00:00;216.0;1;1.7942;1
2020-05-29 00:00:00;216.0;1;1.8015;1
2020-05-30 00:00:00;215.0;1;1.7688;1
2020-05-31 00:00:00;215.0;1;1.7282;1
2020-06-01 00:00:00;214.0;1;1.6953;1
2020-06-02 00:00:00;214.0;1;1.6862;1
2020-06-03 00:00:00;214.0;1;1.7032;1
2020-06-04 00:00:00;223.0;1;2.3091;1
2020-06-05 00:00:00;221.0;1;2.1797;1
2020-06-06 00:00:00;219.0;1;2.0516;1
2020-06-07 00:00:00;215.0;1;1.8049;1
2020-06-08 00:00:00;214.0;1;1.7313;1
2020-06-09 00:00:00;213.0;1;1.6955;1
2020-06-10 00:00:00;213.0;1;1.6691;1
2020-06-11 00:00:00;213.0;1;1.6686;1
2020-06-12 00:00:00;214.0;1;1.71;1
2020-06-13 00:00:00;214.0;1;1.7321;1
2020-06-14 00:00:00;215.0;1;1.815;1
2020-06-15 00:00:00;213.0;1;1.6485;1
2020-06-16 00:00:00;212.0;1;1.5723;1
2020-06-17 00:00:00;211.0;1;1.5303;1
2020-06-18 00:00:00;211.0;1;1.5112;1
2020-06-19 00:00:00;211.0;1;1.5096;1
2020-06-20 00:00:00;211.0;1;1.4718;1
2020-06-21 00:00:00;210.0;1;1.4313;1
2020-06-22 00:00:00;210.0;1;1.3986;1
2020-06-23 00:00:00;209.0;1;1.3558;1
2020-06-24 00:00:00;209.0;1;1.3452;1
2020-06-25 00:00:00;209.0;1;1.3198;1
2020-06-26 00:00:00;208.0;1;1.2872;1
2020-06-27 00:00:00;208.0;1;1.2813;1
2020-06-28 00:00:00;208.0;1;1.2753;1
2020-06-29 00:00:00;208.0;1;1.2503;1
2020-06-30 00:00:00;208.0;1;1.2421;1
2020-07-01 00:00:00;210.0;1;1.3623;1
2020-07-02 00:00:00;209.0;1;1.3058;1
2020-07-03 00:00:00;208.0;1;1.2299;1
2020-07-04 00:00:00;209.0;1;1.2801;1
2020-07-05 00:00:00;212.0;1;1.4488;1
2020-07-06 00:00:00;216.0;1;1.67;1
2020-07-07 00:00:00;213.0;1;1.4724;1
2020-07-08 00:00:00;211.0;1;1.3641;1
2020-07-09 00:00:00;214.0;1;1.5039;1
2020-07-10 00:00:00;223.0;1;1.9753;1
2020-07-11 00:00:00;216.0;1;1.5869;1
2020-07-12 00:00:00;212.0;1;1.373;1
2020-07-13 00:00:00;211.0;1;1.2945;1
2020-07-14 00:00:00;211.0;1;1.2975;1
2020-07-15 00:00:00;215.0;1;1.5027;1
2020-07-16 00:00:00;211.0;1;1.3038;1
2020-07-17 00:00:00;210.0;1;1.2455;1
2020-07-18 00:00:00;209.0;1;1.1945;1
2020-07-19 00:00:00;209.0;1;1.1804;1
2020-07-20 00:00:00;209.0;1;1.1622;1
2020-07-21 00:00:00;211.0;1;1.2445;1
2020-07-22 00:00:00;210.0;1;1.2128;1
2020-07-23 00:00:00;209.0;1;1.1676;1